{"data":{"norad_id":58404,"intl_designator":"2023-180C","name":"STARLINK-30876","alt_names":[],"object_type":"PAYLOAD","status":"ACTIVE","operator":null,"country":"US","launch_date":"2023-11-22","launch_site_code":"AFETR","launch_vehicle":null,"mission":null,"orbit_class":"UNKNOWN","rcs_meters":null,"size_class":null,"mass_kg":null,"dimensions":null,"purposes":["comms"],"wikipedia_slug":null,"has_3d_model":false,"image_url":null,"decayed_at":null,"tle_current":{"epoch":"2026-09-20T08:21:30.223872Z","epoch_age_seconds":156718,"freshness":"FRESH","line1":"1 58404U 23180C   26263.34826648  .00000339  00000+0  21864-4 0  9994","line2":"2 58404  43.0069  33.4696 0001437 259.5547 100.5143 15.27579609157398","mean_motion":15.27579609,"eccentricity":0.0001437,"inclination_deg":43.0069,"raan_deg":33.4696,"arg_perigee_deg":259.5547,"mean_anomaly_deg":100.5143,"bstar":2.1864e-5,"rev_number":15739,"period_min":94.266772842213,"perigee_km":482.06431422432,"apogee_km":484.03621944481,"semimajor_km":6861.1872668346,"source":"CELESTRAK","updated_at":"2026-09-21T09:00:33.869737Z"}}}